GFSFLT2_925_spd_000.txt.gz
Wind_Speed
30 34 34 35 40 42 42 45 48 49 47 47 50 48 47 47 46 45 42 33 29 27 26 24 21 21 22
33 29 31 33 38 38 46 48 45 47 48 47 48 48 46 47 46 44 39 30 28 26 24 21 20 23 22
24 31 29 30 33 37 35 37 42 49 51 48 44 48 47 47 45 45 36 30 29 26 23 22 21 23 22
26 27 27 27 26 22 19 27 29 29 35 38 37 40 41 38 37 34 31 28 26 25 23 23 23 23 22
14 22 19 16 10 19 17 18 25 35 31 30 28 34 40 39 36 35 29 29 26 21 23 22 22 23 22
18 14 21 24 24 20 20 7 6 23 22 24 28 25 26 30 37 34 30 23 22 22 26 22 24 24 21
26 27 27 30 28 23 20 19 13 12 21 10 25 20 29 31 30 27 23 23 23 25 24 25 24 22 20
32 37 36 36 33 33 31 27 13 12 20 5 17 14 24 30 25 22 21 23 24 25 27 24 22 20 20
35 39 41 41 40 34 22 8 5 4 20 8 8 6 14 22 26 22 22 22 25 25 25 23 21 20 20
37 35 34 33 32 26 27 10 4 2 14 9 7 8 3 5 20 20 20 22 23 23 22 21 21 21 21
31 29 24 28 28 22 19 18 5 2 15 18 8 6 5 4 6 19 23 21 19 20 18 18 19 21 22
26 23 21 21 22 13 7 5 6 7 25 14 8 9 5 3 3 12 15 17 19 19 19 18 16 17 19
21 23 22 19 8 0 6 14 21 20 18 11 23 21 13 4 4 6 9 11 14 16 15 17 20 19 18
22 27 23 8 3 2 5 12 15 17 18 18 15 13 8 13 9 7 11 5 13 14 13 12 13 15 16
23 21 15 4 3 7 6 6 5 4 11 14 11 11 10 11 6 10 11 6 11 13 9 10 14 15 16
24 18 12 6 6 5 6 7 5 8 9 6 7 5 3 2 3 9 7 7 8 10 12 9 13 15 15
21 18 10 7 7 6 6 6 6 9 8 8 4 3 3 1 2 7 6 7 8 8 10 13 8 11 11

GFSFLT2_925_spd_003.txt.gz
Wind_Speed
32 32 32 33 36 38 43 43 44 46 49 51 49 50 50 47 46 50 50 51 46 43 45 38 37 32 29
36 33 31 32 35 35 36 38 41 43 44 45 46 49 47 47 43 47 48 47 47 46 47 41 38 32 30
24 31 34 33 32 33 35 35 32 37 42 43 43 40 40 41 43 44 46 45 45 49 42 36 31 30 25
24 28 30 33 30 23 22 22 27 31 34 37 42 38 39 37 45 46 45 47 54 49 46 42 37 27 24
18 22 24 24 19 27 26 28 27 26 30 33 32 31 33 32 37 40 46 46 40 44 38 36 29 30 25
20 15 25 27 29 24 26 13 14 20 19 22 28 26 27 28 30 35 46 45 43 36 33 30 28 28 24
27 28 30 32 32 28 27 22 14 28 18 12 20 24 28 30 32 35 37 36 34 30 29 26 27 24 24
33 31 35 38 35 34 36 34 34 31 22 11 15 15 20 21 26 34 31 29 28 27 27 27 25 25 25
33 36 34 42 40 38 26 14 12 14 13 12 5 3 4 14 21 25 25 24 23 23 24 25 26 25 24
35 32 31 34 32 27 24 10 10 9 14 10 8 7 2 6 15 21 20 20 20 21 23 25 25 25 25
33 31 30 28 26 26 26 21 13 9 16 18 6 7 3 3 5 15 20 19 18 21 21 23 23 24 25
27 25 28 26 27 26 24 19 16 17 25 25 7 8 4 2 3 9 13 14 17 21 21 18 20 21 23
23 25 26 29 30 24 16 7 5 9 4 4 7 15 7 4 4 5 9 7 16 20 19 21 21 21 19
27 28 28 25 22 18 10 3 4 11 17 16 18 19 10 12 13 11 11 5 17 17 18 16 16 19 21
28 26 24 23 18 14 9 3 1 1 6 16 17 14 16 11 8 12 10 8 17 17 13 12 14 16 16
28 25 21 19 16 9 6 0 2 3 5 6 5 5 6 13 11 12 8 10 15 17 12 9 7 11 14
27 23 21 18 14 3 2 3 4 5 6 5 4 1 2 2 3 5 10 9 15 12 11 8 4 7 12

GFSFLT2_925_spd_006.txt.gz
Wind_Speed
30 36 36 34 34 32 34 36 38 42 44 45 45 42 43 45 47 45 45 50 46 48 49 46 44 45 49
33 30 28 32 34 36 34 33 35 36 39 43 44 38 36 38 41 44 44 45 41 43 46 49 45 49 51
24 29 29 30 29 30 34 36 33 32 35 34 39 38 37 37 36 36 42 40 37 38 48 52 51 53 51
22 26 27 28 27 26 28 29 33 31 31 34 36 35 42 35 34 34 37 40 40 43 40 49 53 56 54
19 23 23 23 20 28 26 30 30 31 32 34 31 29 33 30 27 31 33 40 38 43 41 47 50 56 52
22 15 25 31 31 27 23 13 15 25 20 23 30 27 29 31 32 35 35 33 35 34 41 44 50 52 46
31 30 31 33 28 29 27 24 18 35 30 21 27 27 30 33 36 37 34 35 35 35 32 37 40 44 42
35 34 34 28 33 32 33 33 33 33 29 13 22 21 23 35 33 34 31 31 36 31 35 38 39 35 33
38 38 35 39 34 32 23 12 12 16 26 18 22 14 10 19 22 24 19 28 34 35 32 30 31 30 29
35 30 30 33 31 28 25 10 10 9 7 4 2 2 3 4 4 14 19 22 26 28 31 32 32 29 26
32 31 30 26 26 25 25 20 16 10 22 18 6 5 2 1 3 10 20 20 21 22 24 27 28 26 25
30 26 27 27 28 30 30 28 24 21 23 22 10 13 3 2 2 5 13 18 21 19 22 24 24 23 25
26 26 29 33 31 30 27 25 20 12 13 13 16 11 8 2 3 4 7 8 19 24 22 21 22 25 24
28 31 33 30 26 25 21 17 9 7 9 11 3 6 5 6 11 7 12 4 15 21 22 19 20 24 23
29 30 30 27 23 24 17 11 3 1 4 13 16 19 14 11 8 12 13 10 16 19 18 14 12 16 18
30 29 28 23 22 19 13 7 0 2 4 9 10 6 6 17 14 12 11 8 13 17 17 9 8 12 14
30 28 29 21 20 14 9 2 3 5 7 10 8 2 2 3 3 5 8 11 14 12 14 7 7 14 15

GFSFLT2_925_spd_009.txt.gz
Wind_Speed
32 31 38 38 35 34 35 37 33 31 36 40 41 38 36 39 36 38 40 40 42 40 35 35 42 47 48
30 34 35 34 34 36 36 34 35 35 35 33 38 41 37 36 38 33 33 38 38 39 37 37 45 45 54
27 33 33 32 34 34 34 35 35 35 34 33 28 36 41 42 41 35 30 33 35 35 36 38 37 52 46
25 28 30 33 32 31 31 31 34 32 32 30 34 36 38 35 34 34 32 26 30 35 35 34 37 38 41
23 26 24 27 25 32 29 31 30 31 30 29 31 30 27 30 28 26 26 28 30 31 32 34 39 41 44
26 15 26 31 32 30 28 13 10 30 23 30 33 35 34 33 30 30 31 31 31 33 36 33 36 37 42
31 27 31 34 34 33 19 25 17 32 27 23 27 30 34 33 34 33 31 35 37 37 37 36 38 37 39
33 36 35 39 36 34 32 31 31 31 23 11 27 29 27 24 27 31 36 38 39 39 37 33 32 35 37
38 38 38 40 35 32 23 13 14 18 20 20 17 15 18 24 32 31 32 35 35 29 32 24 19 25 25
35 35 31 33 30 30 24 13 12 14 13 9 18 14 4 4 11 17 15 18 17 20 27 39 39 35 30
31 30 30 30 27 28 26 28 19 13 24 17 8 15 9 5 6 12 7 17 23 26 26 26 30 37 32
28 27 27 29 31 32 34 34 30 32 30 19 9 14 8 5 4 3 7 16 24 25 26 23 24 24 27
25 27 29 33 35 32 33 26 27 25 18 14 15 19 19 6 3 3 2 7 19 20 20 22 24 26 27
27 30 32 31 29 30 25 25 19 14 6 6 9 9 6 8 6 6 5 3 15 23 26 25 23 22 20
29 30 29 28 28 29 22 19 10 4 2 5 8 12 12 5 6 8 10 12 17 23 26 20 22 24 23
29 28 27 26 25 23 18 11 3 3 4 6 7 4 6 19 17 11 13 14 14 22 21 15 10 17 24
29 28 28 26 25 17 12 3 3 4 6 8 8 3 3 4 5 17 8 9 14 14 11 9 9 10 15

GFSFLT2_925_spd_012.txt.gz
Wind_Speed
32 39 40 39 38 38 36 37 37 40 40 39 40 41 43 41 42 37 35 35 35 35 34 33 34 32 38
34 35 38 39 38 38 37 36 39 39 40 41 40 40 42 42 37 39 37 40 37 33 32 30 30 31 32
29 33 35 35 36 36 37 37 37 36 37 37 35 35 37 36 43 42 40 38 35 35 31 32 29 29 31
28 29 30 35 34 31 30 31 34 36 37 34 38 34 35 35 35 40 32 31 30 30 30 27 27 31 32
24 25 26 28 25 31 28 33 36 37 33 30 29 30 31 38 37 35 35 33 30 26 26 28 27 29 30
24 16 27 30 33 32 28 15 17 36 28 30 33 29 35 34 37 36 37 35 34 31 29 30 29 31 31
30 31 33 34 35 35 31 29 20 36 33 25 28 29 31 32 35 37 40 40 36 33 31 33 34 33 34
36 35 36 38 37 35 37 36 35 34 25 14 25 29 31 30 29 31 33 27 29 34 35 35 33 30 34
38 40 40 40 34 31 26 14 14 18 20 21 23 25 23 34 30 19 20 23 30 34 34 32 31 26 30
35 35 32 31 30 28 28 14 13 14 18 14 20 19 7 12 14 24 24 34 26 25 23 21 23 17 10
32 31 30 28 28 26 28 28 22 14 27 26 17 17 11 10 18 22 24 28 12 24 19 21 25 26 28
29 28 28 29 29 32 34 34 33 35 37 30 18 13 9 10 10 17 18 16 9 23 24 23 25 26 28
26 28 29 34 35 33 31 32 32 32 29 22 12 14 17 9 9 9 4 9 11 21 23 22 22 24 31
26 31 32 31 30 30 27 27 25 18 9 7 9 12 15 17 15 6 2 2 8 20 24 25 23 24 24
29 30 30 29 28 28 26 24 11 6 6 4 5 7 10 7 5 3 5 5 10 21 26 22 22 25 27
30 29 27 27 26 27 22 14 5 6 7 9 10 7 4 13 19 8 9 10 14 19 20 19 16 20 26
29 28 27 25 26 19 13 9 5 6 8 11 11 5 4 4 6 22 8 10 17 19 17 15 12 17 22

GFSFLT2_925_spd_015.txt.gz
Wind_Speed
36 36 38 37 36 34 35 33 35 39 43 42 43 43 44 46 44 43 41 40 37 33 34 35 34 32 35
33 34 36 37 36 34 33 34 37 37 40 45 41 41 41 44 44 40 39 38 36 35 35 37 37 33 28
29 34 34 34 36 33 33 35 36 37 36 39 41 42 44 40 41 41 38 38 32 33 29 31 34 33 27
28 30 30 33 30 31 33 34 37 35 36 39 41 41 40 37 34 41 40 39 38 34 32 32 31 31 28
24 26 24 26 25 33 32 36 38 32 34 37 33 33 35 37 35 35 35 36 39 36 30 30 30 24 26
24 11 21 31 35 30 31 19 18 29 30 37 33 34 34 33 32 33 36 35 36 37 36 34 33 31 26
30 27 31 35 35 35 30 30 22 38 33 28 30 32 27 28 34 36 35 34 34 35 33 35 33 34 30
34 35 35 40 36 36 37 36 34 33 29 14 28 24 32 28 35 33 36 31 29 28 26 26 27 30 32
38 41 41 39 38 35 27 17 15 17 26 25 25 25 32 30 32 26 23 31 31 30 32 32 31 31 32
34 32 32 33 33 30 29 14 13 14 24 21 24 21 11 25 18 31 32 30 32 39 37 35 31 29 28
31 30 30 29 29 29 29 30 24 13 30 29 23 22 15 11 19 23 27 26 35 31 8 16 21 26 22
29 28 28 29 31 33 35 35 34 36 38 35 25 22 10 8 10 18 25 26 23 20 20 22 19 17 14
25 27 30 34 36 33 32 32 32 33 33 33 29 13 12 7 8 14 14 11 19 15 24 25 21 20 26
27 31 32 31 31 30 29 29 24 24 16 10 12 11 13 16 14 10 11 3 14 13 24 26 28 26 26
29 29 29 29 29 31 29 25 11 8 11 15 15 12 11 17 5 5 4 5 9 10 22 22 26 24 27
29 28 26 26 26 28 24 15 7 8 9 13 15 12 7 5 23 8 9 7 12 17 20 20 20 24 27
28 27 26 25 25 21 20 17 11 11 11 13 14 6 3 3 8 24 8 10 16 21 22 18 18 20 26

GFSFLT2_925_spd_018.txt.gz
Wind_Speed
38 38 38 39 42 36 31 33 35 36 37 38 43 45 45 45 44 43 44 42 43 40 40 39 39 35 36
36 33 36 39 38 38 33 32 29 34 37 44 48 46 42 44 46 47 48 43 42 40 38 37 37 35 36
31 35 35 35 38 35 30 30 32 35 40 41 39 39 42 43 42 43 44 44 36 34 36 34 34 35 38
30 28 32 37 28 27 30 33 36 33 38 38 35 40 39 38 40 40 40 38 36 34 35 34 33 34 35
21 28 25 29 24 29 30 37 35 35 30 35 33 33 35 37 36 36 35 35 33 33 34 35 34 37 32
28 21 29 32 32 28 31 24 17 23 29 36 32 35 32 35 32 40 33 35 37 36 37 36 36 35 36
33 32 32 29 32 34 30 25 22 35 33 28 32 30 28 34 36 36 37 36 38 38 36 36 37 37 36
34 33 34 38 37 34 35 35 33 31 27 14 28 29 33 31 34 39 38 36 32 24 30 31 29 29 29
35 36 38 39 36 36 27 20 15 20 27 27 25 30 32 33 35 33 26 28 35 36 32 33 32 30 30
30 34 31 33 33 31 31 15 14 14 25 22 25 22 10 27 21 27 28 28 33 31 34 35 37 35 30
32 32 31 28 29 29 30 30 25 16 36 30 24 23 14 8 18 20 24 28 33 34 34 33 36 36 30
30 27 29 30 32 34 36 36 35 36 40 36 22 22 12 9 8 21 26 28 29 26 28 15 12 30 34
25 28 30 33 34 33 33 32 32 33 30 28 22 15 12 4 7 14 18 18 25 23 22 25 22 14 18
27 30 31 29 29 28 28 30 26 15 18 18 21 15 13 15 18 11 16 5 20 18 16 25 25 23 21
28 28 28 27 27 28 25 24 18 11 17 21 22 18 13 14 8 13 10 8 16 16 15 20 27 24 29
28 27 25 24 24 26 23 20 14 16 16 19 21 15 2 3 13 14 11 9 16 20 18 18 20 28 33
27 26 25 24 25 22 19 17 15 15 15 16 15 7 5 5 9 19 8 12 17 21 21 18 17 23 31

GFSFLT2_925_spd_021.txt.gz
Wind_Speed
36 36 37 36 40 36 32 32 33 37 35 36 40 43 45 50 49 48 45 45 45 44 45 43 43 44 44
36 34 35 37 39 38 34 31 28 30 36 40 45 48 47 43 44 44 43 44 43 44 43 44 43 43 41
29 36 34 32 31 27 37 34 32 33 38 40 41 41 41 39 42 44 43 42 40 42 41 40 38 36 36
29 25 31 25 29 34 36 32 31 32 36 40 37 34 39 40 40 40 39 39 39 39 41 40 38 34 34
23 20 28 30 28 32 32 29 36 32 32 28 27 34 36 37 37 37 36 36 36 39 39 37 34 33 32
22 18 30 30 32 31 29 22 15 26 24 35 31 35 33 33 36 37 38 43 41 39 38 36 35 35 36
30 31 31 33 35 28 30 28 24 33 31 28 31 31 32 35 36 39 41 41 40 40 39 39 38 39 39
31 33 34 34 37 34 34 34 31 30 29 15 31 31 35 34 38 39 41 38 37 37 37 34 34 33 35
32 32 37 36 35 35 26 20 14 23 31 27 29 29 32 36 39 36 34 32 34 35 34 34 34 35 37
31 32 32 33 32 30 29 16 13 13 34 20 24 22 8 24 26 29 31 34 35 34 37 36 34 32 31
30 31 30 28 30 29 30 28 24 19 38 31 21 23 15 9 21 25 29 31 32 34 33 32 34 35 32
28 27 28 29 31 34 36 36 34 34 38 35 19 18 12 9 9 22 28 28 29 30 31 30 29 34 41
25 27 29 32 34 31 32 31 30 29 28 24 25 20 17 7 8 16 21 18 25 22 20 20 11 14 32
27 30 30 28 28 27 26 27 24 24 26 23 23 22 16 16 15 14 22 7 25 24 22 19 25 18 16
28 28 28 27 25 26 24 25 16 16 22 24 27 20 11 14 9 18 18 15 19 21 14 19 25 25 21
28 26 25 25 25 25 24 20 14 17 18 19 19 16 8 5 10 16 13 11 16 20 18 14 18 27 34
27 26 26 24 25 23 21 18 15 16 16 16 14 4 4 4 9 31 12 17 16 22 21 22 19 25 29

GFSFLT2_925_spd_024.txt.gz
Wind_Speed
34 32 32 34 32 30 28 29 28 31 42 46 47 49 48 47 48 49 50 50 47 46 46 46 46 46 45
34 34 35 36 33 31 23 30 29 36 39 40 39 42 45 45 47 47 45 45 43 42 43 45 45 45 45
31 36 36 31 28 29 32 37 32 33 35 36 40 41 41 41 41 41 40 42 43 43 44 45 43 44 44
30 27 30 22 29 31 34 31 35 32 31 35 35 38 40 39 43 44 44 43 43 43 42 42 43 44 44
27 27 22 26 25 30 31 36 30 26 34 33 33 33 36 40 41 42 41 40 40 40 40 40 39 40 41
19 18 25 28 30 31 30 15 16 29 25 33 32 37 35 36 38 40 41 41 42 42 41 42 42 42 42
27 28 30 33 31 28 30 27 24 35 31 30 32 33 36 36 40 41 42 41 42 41 42 43 42 42 41
30 32 31 35 36 32 32 32 30 32 28 15 32 32 35 36 40 42 41 40 40 39 40 40 41 41 41
30 32 36 34 32 31 24 21 14 24 32 23 29 29 32 36 39 36 34 34 36 39 40 40 39 35 34
30 31 31 31 30 27 27 17 12 13 28 18 26 23 8 26 23 30 32 34 36 38 40 40 39 35 29
29 29 29 28 30 29 29 27 24 20 36 31 21 24 15 11 22 28 31 33 35 37 37 37 38 38 31
26 27 28 29 31 33 34 34 33 34 40 37 25 24 15 13 13 23 29 32 32 32 31 32 33 33 38
24 27 29 32 34 32 32 31 32 32 32 31 29 29 23 11 10 19 22 27 32 24 28 23 22 25 28
26 30 31 29 30 29 28 30 26 29 27 24 26 25 20 17 17 16 27 9 27 29 26 21 19 10 28
28 28 29 28 28 28 26 26 18 18 22 26 28 26 19 18 9 18 22 18 22 23 17 15 24 24 12
28 27 27 26 27 27 25 21 17 19 18 20 23 21 11 8 10 18 16 16 22 23 22 14 18 29 26
28 27 27 26 26 24 23 20 18 17 17 19 18 7 5 5 9 25 20 20 20 21 23 17 14 31 36

GFSFLT2_925_spd_027.txt.gz
Wind_Speed
34 33 36 36 34 32 32 32 30 28 39 45 47 43 43 44 43 42 43 47 47 47 48 48 48 48 47
33 38 36 38 37 34 29 19 31 32 41 41 40 41 42 39 42 43 43 44 44 46 48 48 47 46 47
32 37 37 32 32 29 34 30 32 33 37 37 36 36 39 45 43 43 44 43 43 42 41 42 43 44 44
31 30 31 25 27 31 33 30 32 33 34 32 38 42 41 41 42 43 43 43 43 44 44 44 44 45 46
27 23 25 26 26 31 31 33 30 26 31 35 33 31 35 40 40 40 40 39 40 41 41 42 42 43 45
27 20 26 29 32 32 26 24 15 30 23 37 32 34 35 35 38 39 40 41 42 42 41 42 43 44 44
29 28 31 32 31 30 30 27 26 36 28 29 31 32 34 36 38 40 40 41 41 42 42 42 43 44 45
30 33 32 35 36 32 32 34 32 32 26 13 30 33 35 36 39 40 40 37 37 37 39 40 41 41 42
28 33 36 32 32 32 25 22 14 25 29 24 27 29 35 39 38 32 33 35 37 38 41 42 42 42 42
31 32 32 31 30 27 27 19 14 14 23 19 27 22 9 27 24 34 32 34 36 38 40 42 43 41 36
28 30 29 28 28 28 28 27 26 22 36 30 23 27 16 11 28 30 32 34 35 36 38 40 42 42 35
26 26 28 29 31 33 34 34 32 34 41 37 25 25 19 13 14 24 32 33 30 34 34 37 39 40 39
24 27 29 33 34 32 32 31 31 31 32 32 30 30 25 14 11 22 23 27 33 28 30 29 27 26 24
25 30 30 30 30 29 28 30 27 29 28 25 26 27 24 23 21 18 28 9 26 29 29 24 27 7 22
26 28 29 29 29 29 26 26 18 20 27 28 29 27 24 23 11 18 23 21 25 27 25 17 21 8 16
27 26 27 27 28 29 26 22 18 21 21 23 26 24 19 9 10 17 20 20 27 26 22 10 13 30 9
26 27 26 27 27 25 24 21 20 20 20 21 20 11 9 7 9 24 23 23 24 22 22 21 11 25 7

GFSFLT2_925_spd_030.txt.gz
Wind_Speed
33 33 32 32 33 31 30 30 30 32 33 42 45 47 47 46 46 45 44 44 42 43 42 43 45 44 45
35 36 35 37 35 32 25 26 32 34 39 39 41 43 44 43 41 41 42 42 44 45 43 42 45 45 44
33 35 37 33 29 29 29 32 32 33 35 37 39 40 42 41 44 46 45 44 44 43 43 44 43 42 43
30 31 24 29 31 31 29 31 32 30 32 40 37 39 40 40 41 42 42 42 42 42 42 42 43 44 45
21 26 26 28 26 32 30 33 29 32 33 34 30 34 37 39 40 40 39 38 38 39 40 40 40 41 43
25 23 27 28 32 31 28 27 15 26 23 35 32 35 35 36 37 38 39 40 41 42 41 41 43 43 43
29 28 30 32 31 30 31 28 28 35 31 32 31 35 35 37 39 40 41 41 40 41 42 41 42 44 45
29 32 30 34 35 31 33 34 32 32 26 14 33 35 36 36 40 41 39 37 37 38 38 39 40 42 43
26 31 35 31 30 31 26 23 15 27 31 25 27 31 36 40 38 30 31 35 37 38 38 39 41 42 44
31 32 29 30 28 25 27 21 19 12 23 17 28 23 8 22 22 36 33 33 34 36 38 39 41 41 37
27 28 28 27 27 26 26 26 25 23 38 30 22 26 15 16 27 28 32 35 33 35 34 35 37 38 36
25 26 27 28 31 33 34 33 31 33 41 38 25 26 21 13 14 25 34 36 29 32 34 36 36 38 41
24 26 28 32 34 31 33 32 31 32 31 30 30 31 26 18 10 26 27 26 33 28 32 31 30 32 29
24 28 29 28 29 28 28 30 28 30 26 24 26 26 26 25 22 22 27 10 31 29 29 29 28 25 13
25 27 27 27 29 27 26 27 19 21 29 32 30 27 25 26 15 20 25 24 28 31 28 24 22 19 6
27 25 25 26 26 28 25 21 19 22 22 25 29 28 26 11 9 17 22 26 33 30 30 15 15 19 10
25 26 25 26 25 24 23 22 21 22 19 22 21 14 10 9 11 21 25 28 31 26 28 22 13 15 12

GFSFLT2_925_spd_033.txt.gz
Wind_Speed
31 32 33 32 32 30 29 30 33 38 38 39 41 40 41 42 43 44 45 45 45 44 43 43 43 42 42
36 33 33 33 32 30 30 34 33 33 37 38 39 40 41 41 41 42 43 43 43 43 44 45 44 43 44
33 35 33 28 30 33 31 34 31 33 38 36 36 38 39 41 42 42 42 42 42 43 43 43 43 43 43
29 25 29 33 30 30 29 30 31 33 37 35 37 38 38 40 41 41 41 40 40 40 41 41 41 41 43
21 25 28 28 27 30 30 33 32 31 35 33 31 36 37 38 38 38 37 37 38 39 39 40 40 40 40
24 24 29 28 31 30 28 28 15 27 25 39 32 36 34 35 36 37 39 40 41 41 41 41 42 43 43
29 29 29 32 31 29 32 29 29 34 31 34 33 35 35 36 38 39 39 39 39 40 40 41 42 43 44
29 31 30 30 34 31 32 33 33 33 27 15 33 33 35 36 40 38 35 34 34 35 37 38 39 41 43
27 27 34 30 26 27 26 22 16 27 33 24 24 31 35 38 31 24 29 36 38 38 38 39 40 41 43
28 27 23 25 24 21 24 21 20 12 17 17 27 22 8 18 22 37 31 31 32 35 37 37 38 39 37
25 25 25 23 24 23 24 24 24 23 36 28 22 26 16 19 29 30 32 33 33 35 33 33 34 36 35
23 24 25 25 27 29 31 30 28 32 40 36 25 26 23 16 14 28 36 36 30 31 33 35 35 36 38
22 24 25 29 31 28 29 29 29 30 30 29 29 31 27 22 15 30 28 29 35 29 34 32 32 32 30
23 26 27 26 27 25 26 28 27 29 24 23 26 27 26 27 23 25 27 12 36 33 34 32 29 27 24
24 25 26 25 28 26 24 25 20 22 27 30 26 24 24 26 21 22 24 27 32 35 32 28 23 17 8
25 23 24 24 25 27 23 20 20 22 24 27 28 27 24 15 12 16 21 26 33 32 30 18 15 15 12
24 25 24 24 24 23 22 21 21 21 23 23 21 15 11 11 16 19 19 27 30 29 30 23 10 12 12

GFSFLT2_925_spd_036.txt.gz
Wind_Speed
29 29 30 29 30 28 30 33 36 37 34 37 38 38 38 40 41 41 41 42 42 42 43 44 44 44 45
31 31 30 31 29 29 32 35 32 34 35 36 37 39 39 38 38 40 41 42 43 43 43 44 43 43 44
32 31 31 28 29 34 29 30 30 32 35 36 36 38 38 38 39 41 42 42 42 42 42 42 43 43 44
28 32 26 29 31 29 28 30 30 32 38 35 35 36 36 38 40 41 40 39 39 40 41 42 42 42 44
25 23 28 28 26 28 28 31 32 31 34 33 32 35 37 37 37 36 35 36 38 39 39 40 42 42 42
24 25 30 30 29 29 31 24 15 29 25 38 33 37 35 34 36 37 39 39 38 38 39 41 42 43 44
28 29 30 30 32 31 29 30 28 35 33 33 32 34 34 36 37 37 38 38 37 38 38 39 40 42 43
29 31 31 31 30 33 31 33 34 32 28 15 32 31 33 36 39 35 32 31 31 34 37 39 40 41 42
28 31 30 33 29 26 26 22 16 27 31 23 23 30 35 38 28 22 28 36 35 35 35 36 37 38 41
29 27 25 24 23 21 22 21 20 13 18 19 26 22 8 19 22 37 30 30 32 34 34 34 34 35 34
25 24 23 23 22 21 22 22 25 23 35 27 22 25 17 21 29 30 33 31 33 37 34 34 35 35 34
22 23 23 24 25 26 29 28 28 33 40 35 23 26 24 16 15 30 35 37 32 33 33 35 37 38 38
21 23 24 27 30 28 28 27 29 30 31 31 30 30 28 24 19 31 30 30 33 30 37 34 35 32 30
22 24 26 25 26 24 25 26 25 29 27 25 25 28 29 28 28 27 30 13 33 33 35 36 31 27 20
22 24 24 24 25 24 24 24 21 23 27 27 25 26 28 30 25 27 27 27 28 33 33 28 27 22 19
24 23 23 24 25 26 24 21 20 23 23 26 27 26 24 23 17 20 24 24 29 30 29 22 19 25 18
23 24 24 23 24 23 23 21 21 22 23 25 23 17 11 13 25 18 21 28 27 25 24 26 19 25 23

GFSFLT2_925_spd_039.txt.gz
Wind_Speed
25 24 25 29 29 29 28 32 34 34 37 34 35 35 37 38 38 39 39 39 39 39 40 40 40 41 41
25 25 27 26 31 29 28 29 36 30 32 35 36 37 38 37 38 38 38 39 39 40 40 41 41 41 42
28 27 27 28 29 25 32 27 27 30 34 36 36 38 35 35 37 37 38 38 40 41 41 41 41 41 41
28 30 27 26 26 27 25 26 27 31 34 37 35 35 34 36 38 37 37 37 37 37 38 38 39 39 40
26 27 25 26 24 25 26 28 34 30 31 38 26 35 36 35 35 34 33 34 36 37 38 39 40 40 41
26 24 28 26 26 26 30 27 11 28 21 43 30 35 34 33 33 36 36 34 34 36 36 37 39 39 40
30 25 28 28 30 31 29 26 28 33 30 36 32 35 34 36 34 36 37 36 33 32 33 34 36 37 39
28 27 28 32 32 28 30 31 34 30 25 17 34 36 33 35 39 35 31 27 28 31 36 36 36 37 39
27 32 33 31 29 27 24 22 17 27 26 24 23 29 36 40 30 22 26 32 32 31 32 35 37 37 38
29 28 25 25 24 24 24 20 21 18 22 16 25 21 7 22 22 34 30 30 31 32 32 35 37 35 32
25 23 24 24 25 24 25 24 25 26 37 28 24 27 17 22 28 31 35 33 32 37 34 34 34 36 36
22 23 24 25 26 28 31 31 32 35 41 35 27 27 26 19 15 30 34 36 32 34 34 33 36 35 34
21 24 24 28 32 30 30 28 30 33 35 33 31 31 28 26 22 32 31 37 36 29 30 33 34 36 32
23 26 27 27 27 26 26 27 27 30 31 27 26 28 28 28 29 30 32 18 32 30 32 34 34 31 31
23 25 26 25 26 26 26 26 22 25 29 30 27 28 31 32 26 30 28 30 29 31 30 30 33 29 27
25 24 24 25 26 27 25 23 22 24 25 28 28 27 26 22 23 22 26 27 30 32 30 21 26 31 29
24 25 25 25 26 25 24 24 23 23 26 27 24 20 12 13 30 18 21 29 30 28 26 24 23 32 31

GFSFLT2_925_spd_042.txt.gz
Wind_Speed
26 27 27 28 33 29 32 33 33 32 34 34 33 34 37 37 37 38 39 37 37 37 37 35 36 35 36
24 25 25 27 30 35 31 31 32 34 29 34 35 36 37 37 36 36 36 37 36 36 35 36 36 37 37
25 24 28 29 29 29 29 31 30 30 32 34 37 35 35 36 35 36 37 37 35 35 35 36 35 36 36
22 26 25 24 27 26 28 26 29 29 35 34 29 36 33 34 36 35 34 33 33 32 33 33 34 34 35
22 27 25 24 23 24 25 29 35 32 28 34 27 35 36 34 34 33 31 32 34 33 33 33 32 33 34
25 22 25 24 23 24 28 27 13 24 22 37 31 34 33 33 34 35 35 33 34 34 33 33 33 34 34
29 26 28 29 29 28 30 27 25 32 26 32 32 33 32 34 34 35 38 33 29 28 28 29 31 33 35
29 30 29 33 32 30 28 28 31 30 25 19 33 35 36 32 37 36 31 26 26 29 32 32 32 32 33
29 29 30 32 29 28 24 22 21 28 27 23 27 29 34 38 29 24 24 31 31 30 30 32 31 32 35
27 32 27 26 26 24 25 21 22 21 18 17 26 21 10 24 19 33 30 30 31 31 30 32 31 31 30
28 25 27 27 26 26 24 23 26 27 36 27 25 27 18 22 25 30 34 35 32 36 33 31 29 30 32
22 25 25 27 28 30 33 33 32 34 40 34 26 28 27 23 18 30 33 35 32 33 34 34 32 32 32
22 24 26 30 33 31 34 31 33 34 34 33 32 31 28 27 24 32 31 33 34 29 30 33 32 32 33
24 28 29 28 29 28 28 30 28 31 29 27 26 28 28 29 29 30 33 20 32 33 32 33 33 33 32
25 27 28 27 28 28 27 27 23 25 30 31 28 29 32 33 29 32 30 30 31 31 30 30 36 31 29
26 26 26 26 27 29 25 24 22 25 26 28 30 29 26 24 24 27 26 27 31 31 30 26 29 32 30
26 27 27 25 26 26 26 24 24 25 27 27 25 21 12 14 26 18 20 28 30 28 27 26 26 32 32

GFSFLT2_925_spd_045.txt.gz
Wind_Speed
21 24 26 29 31 33 33 31 31 28 31 32 31 30 34 33 35 34 34 35 35 34 35 35 35 34 34
22 24 26 27 31 33 31 29 29 30 30 29 33 33 35 34 33 33 34 34 33 34 36 36 36 34 34
24 24 26 30 29 29 28 28 29 27 30 33 31 33 30 32 33 31 33 34 33 33 33 33 34 33 33
22 22 23 27 26 26 27 27 30 30 32 33 29 29 33 32 32 32 31 30 30 30 31 32 33 33 33
16 19 23 24 22 25 26 30 34 32 30 30 23 33 33 31 30 31 28 31 33 34 33 33 32 32 32
19 19 23 23 25 26 28 27 13 25 14 26 31 32 32 30 30 32 35 34 32 33 33 30 30 29 29
24 23 24 26 31 28 26 24 25 31 28 28 33 32 31 31 32 35 35 33 31 28 27 26 27 29 30
24 28 29 29 26 26 27 26 29 32 26 20 29 33 33 32 34 34 30 27 26 27 31 31 29 29 30
24 24 25 29 26 25 24 22 21 28 27 23 22 26 33 35 28 23 23 26 32 31 29 29 30 29 29
23 31 29 27 23 22 24 21 22 19 19 11 23 19 9 20 18 31 33 30 30 31 31 29 29 28 27
27 26 27 27 26 27 25 23 25 25 35 27 23 26 18 22 25 28 33 36 32 34 32 30 27 23 26
21 23 24 27 29 31 32 30 30 32 37 34 25 27 26 23 19 28 30 34 32 33 32 32 28 27 26
20 24 25 30 33 30 33 30 31 32 32 30 31 32 28 26 24 32 30 30 33 29 27 28 29 29 30
23 26 28 26 28 27 27 29 27 32 31 26 26 29 29 29 28 30 33 20 29 30 31 31 32 30 30
23 24 26 26 28 28 25 26 21 26 31 34 31 29 31 32 30 32 32 30 31 31 28 29 32 32 31
25 24 25 26 26 28 25 23 23 26 26 29 29 28 28 25 27 33 31 29 31 29 28 26 30 33 30
24 26 27 27 26 26 25 23 24 25 28 28 24 21 12 13 26 20 23 27 30 29 28 28 27 36 32

GFSFLT2_925_spd_048.txt.gz
Wind_Speed
18 24 25 27 29 30 30 30 29 26 26 28 28 28 29 30 31 32 32 33 32 33 35 34 34 34 34
20 24 25 26 28 29 30 29 30 28 27 28 29 30 29 30 30 29 31 32 33 33 33 34 35 34 34
20 24 24 27 28 28 26 28 29 27 29 28 29 29 28 28 29 32 32 32 31 33 33 33 33 34 32
23 22 23 27 24 25 25 26 29 29 30 28 28 25 29 32 31 31 29 29 30 30 31 32 33 33 34
18 19 19 19 22 24 24 28 30 30 29 23 27 29 35 31 31 31 29 27 29 33 33 33 33 33 33
17 15 20 22 24 24 26 25 11 22 15 26 31 31 33 33 31 30 32 33 32 33 32 32 31 30 30
22 23 24 27 30 29 24 20 24 33 28 28 29 31 31 31 30 33 34 32 29 28 28 28 28 28 29
24 28 28 26 23 24 26 27 28 29 26 19 26 30 32 33 33 33 29 27 26 26 27 30 32 32 31
21 21 22 25 27 25 24 20 21 24 28 22 18 27 30 34 25 23 23 25 29 32 32 30 29 30 32
21 28 28 25 21 19 22 20 20 15 11 8 21 20 9 19 17 26 32 32 30 30 31 31 29 29 28
27 27 27 26 25 25 24 23 23 23 33 26 19 23 17 18 20 27 31 36 34 34 31 29 28 26 26
20 22 22 26 30 29 30 28 28 32 36 33 20 23 25 24 18 27 29 32 32 34 32 31 25 25 27
20 23 25 29 31 30 30 31 32 34 33 30 30 31 27 27 25 31 29 29 34 31 28 28 27 25 25
23 26 26 25 28 28 26 27 26 33 34 27 25 27 30 30 29 31 32 19 29 32 31 30 30 29 30
21 22 24 24 26 28 26 26 22 25 31 36 31 28 30 33 30 32 30 30 31 30 28 31 32 31 32
22 22 24 25 26 27 24 23 23 26 26 30 30 28 27 24 28 34 32 30 33 31 29 26 30 31 29
25 27 27 26 25 25 24 22 23 25 27 29 25 20 11 13 26 22 27 29 30 31 30 28 28 34 30

GFSFLT2_925_spd_051.txt.gz
Wind_Speed
17 22 22 24 26 26 28 30 31 27 26 26 26 26 27 28 29 30 30 31 31 31 32 32 33 33 33
20 22 23 24 26 28 29 30 31 30 28 26 26 27 27 27 28 28 28 29 31 33 34 33 33 33 33
17 21 23 24 26 29 30 29 28 30 28 26 26 26 25 24 26 29 31 32 32 32 32 32 32 33 32
23 22 23 23 25 25 24 25 28 33 31 26 23 22 27 31 31 30 29 29 30 31 31 32 32 32 32
19 20 19 19 20 25 25 26 26 30 27 23 22 29 35 32 32 30 27 27 28 29 31 33 34 33 33
18 15 17 22 24 23 24 21 9 17 19 31 27 32 35 33 31 28 30 31 31 31 32 32 33 32 32
21 22 23 26 29 28 24 21 23 29 29 33 24 31 35 33 31 31 33 31 29 28 28 29 30 30 30
23 27 27 26 24 24 26 29 26 25 20 21 21 28 34 32 35 31 28 27 26 25 26 28 30 32 33
19 20 22 25 26 25 25 19 20 22 21 23 18 27 30 33 21 23 23 24 27 30 32 32 32 32 33
20 27 26 24 21 18 21 21 19 15 5 9 20 16 10 19 18 26 33 32 30 30 30 31 31 31 29
25 25 25 25 26 25 23 22 22 23 30 23 19 23 17 18 19 27 33 36 35 36 35 30 28 27 28
21 23 25 29 29 28 27 27 26 32 37 31 21 24 25 25 20 27 29 32 35 36 35 33 25 24 25
20 23 26 28 28 30 31 30 30 32 32 29 29 31 27 27 26 32 30 28 35 33 29 30 32 32 28
22 25 25 26 27 28 28 28 26 32 32 28 24 27 30 30 29 31 33 19 27 30 30 30 29 28 29
20 21 23 25 27 28 28 27 21 25 29 36 31 29 31 32 30 32 31 30 31 29 25 29 30 28 28
22 23 24 26 27 27 23 22 23 25 26 31 30 28 25 22 28 33 33 27 32 30 27 26 29 28 28
23 27 28 27 23 26 25 23 24 24 27 29 26 19 11 13 26 21 27 31 31 30 29 28 29 34 29

GFSFLT2_925_spd_054.txt.gz
Wind_Speed
13 19 21 22 22 22 23 26 29 29 25 25 24 24 25 25 26 27 27 28 29 29 30 30 30 30 32
17 21 21 22 22 24 25 27 29 29 26 24 24 25 24 24 25 25 25 27 29 30 31 32 32 33 33
17 18 21 21 23 25 27 29 27 29 25 24 23 23 22 21 24 27 29 31 31 31 31 31 32 32 33
19 21 20 19 22 23 22 23 28 29 29 23 20 22 24 28 29 29 30 29 29 29 29 31 32 33 33
18 17 16 17 17 23 24 24 24 24 26 25 28 31 35 33 30 28 27 26 26 28 30 31 32 33 34
18 14 16 20 23 22 23 18 10 18 20 32 30 33 33 32 29 27 29 30 30 30 31 31 32 32 33
18 20 21 25 27 27 21 20 22 27 29 34 22 30 31 33 31 30 31 30 27 27 27 28 29 30 30
19 22 22 21 21 22 25 27 25 25 21 18 24 26 33 31 36 29 26 25 25 25 25 27 29 30 32
15 16 18 22 22 22 25 19 17 18 20 21 19 27 30 32 16 22 23 25 27 30 31 30 30 31 33
19 24 22 21 18 17 18 20 15 13 6 6 19 17 10 18 17 27 34 33 30 30 31 31 31 31 30
23 23 22 21 22 21 21 19 18 20 28 20 15 22 17 19 20 26 31 37 37 38 36 31 28 26 28
19 22 23 24 24 25 24 24 24 28 34 28 19 23 24 25 21 28 29 35 34 34 34 33 26 25 25
19 22 22 22 25 27 28 28 30 31 29 26 26 29 26 26 26 33 30 28 35 32 28 30 33 31 31
19 22 22 25 28 27 29 31 30 34 30 25 22 24 30 29 29 33 33 18 27 33 30 32 30 28 29
20 21 24 26 29 29 28 27 19 24 31 36 30 28 29 30 29 32 31 30 29 31 26 28 30 29 31
20 20 24 27 29 29 24 21 22 25 26 30 30 28 23 21 26 34 32 29 33 30 26 25 28 27 27
19 23 24 27 22 27 27 21 22 24 26 27 25 19 11 13 28 22 28 33 31 30 27 26 28 35 28

GFSFLT2_925_spd_057.txt.gz
Wind_Speed
9 8 15 17 19 20 20 21 19 21 23 23 22 21 23 24 24 25 26 27 27 28 28 29 28 29 30
7 12 15 17 19 20 21 20 20 23 23 21 22 22 22 22 22 23 24 25 27 29 29 31 31 32 32
8 9 12 17 17 18 18 18 20 22 21 21 19 20 20 22 23 25 27 29 30 30 31 32 33 33 33
11 11 10 11 15 14 18 18 21 22 22 18 19 21 24 26 26 27 27 27 28 28 30 31 32 32 33
11 10 12 13 15 17 19 19 21 23 18 17 20 22 25 24 24 24 24 25 26 27 29 30 31 32 33
10 13 15 16 16 17 18 18 13 14 13 25 25 27 25 22 23 26 28 29 30 29 30 30 30 30 32
14 15 16 17 19 18 18 19 20 28 25 27 26 26 22 22 25 29 29 29 28 27 27 27 28 29 30
13 16 16 15 16 16 20 21 22 26 19 17 21 23 24 24 27 27 24 24 25 25 26 27 29 30 31
11 13 14 17 16 15 16 15 16 20 19 19 17 23 26 26 17 19 21 24 27 30 30 30 30 30 31
14 17 16 15 13 11 10 12 14 14 5 7 20 18 10 16 15 25 24 25 27 28 29 30 29 29 28
14 14 14 14 12 12 12 11 14 18 23 15 15 22 14 17 21 22 29 33 29 29 28 25 24 22 24
10 12 13 15 17 18 19 18 17 24 30 22 16 19 21 23 21 25 27 31 30 28 26 25 24 23 24
10 13 15 17 20 21 22 23 24 26 23 18 22 25 22 24 25 35 27 26 31 27 22 22 24 22 24
12 14 15 16 19 20 20 23 24 25 20 18 18 20 26 27 26 32 31 16 27 28 27 28 27 25 27
11 13 14 16 20 20 19 17 14 21 29 30 22 21 25 28 28 29 29 30 27 30 26 29 29 26 27
14 13 16 18 19 22 17 17 19 22 23 27 26 26 21 19 25 32 28 28 30 28 26 25 29 26 24
15 17 18 19 18 19 21 19 22 22 23 25 23 19 11 13 23 17 25 31 29 27 25 24 27 31 25

GFSFLT2_925_spd_060.txt.gz
Wind_Speed
8 11 12 12 13 12 15 17 18 19 21 22 23 23 23 23 24 24 25 26 26 27 27 27 27 28 29
4 6 12 11 12 14 16 17 18 20 21 21 22 22 23 22 22 22 24 25 26 27 28 29 30 31 32
5 5 8 13 13 15 16 16 17 19 20 20 21 20 21 22 23 24 26 26 28 29 30 30 31 32 33
9 10 10 11 13 14 15 15 18 18 18 19 18 19 22 22 24 25 26 25 25 26 27 29 29 31 32
9 9 11 13 13 14 16 17 19 20 17 15 17 20 22 22 24 23 22 22 24 25 27 29 30 31 31
9 12 13 13 13 13 15 17 13 10 13 23 22 24 24 22 23 25 26 27 27 28 29 30 30 31 30
12 13 14 13 12 13 14 15 18 23 22 25 23 24 22 22 24 28 29 28 27 26 26 27 28 29 31
10 13 13 11 10 14 16 19 20 21 17 20 20 22 24 25 28 29 27 25 26 26 26 27 29 31 31
9 11 13 14 15 14 15 15 17 20 18 18 15 20 27 31 22 19 21 23 26 28 29 30 30 30 31
8 10 11 11 11 11 11 12 14 12 3 7 17 16 9 14 13 21 23 22 25 28 29 29 29 28 27
10 9 9 8 7 8 9 12 14 17 19 14 16 20 13 17 22 22 27 28 25 28 26 26 24 22 24
9 9 9 9 9 10 12 15 17 25 29 21 15 16 19 23 20 25 26 28 27 28 24 23 23 23 24
9 11 11 12 14 13 15 17 19 24 24 20 21 24 22 23 25 31 28 26 29 25 21 22 23 23 25
11 13 14 12 13 13 15 16 18 19 15 21 20 20 25 25 26 29 28 18 27 29 27 28 25 24 25
11 13 13 13 14 13 14 16 17 22 25 22 18 21 26 29 30 28 27 27 27 30 28 29 28 27 27
12 13 14 14 14 14 15 16 20 20 22 25 24 25 23 22 26 30 28 28 28 27 26 25 28 25 23
12 13 14 14 15 16 17 18 21 21 22 24 22 20 10 11 21 19 26 27 29 27 23 23 26 30 25

GFSFLT2_925_spd_063.txt.gz
Wind_Speed
8 11 11 13 15 14 13 15 21 18 19 19 22 23 23 23 23 22 22 22 23 23 24 24 24 24 24
7 8 8 10 10 12 13 16 16 17 18 21 22 22 22 24 23 22 22 22 23 24 25 25 25 26 27
3 3 5 8 10 9 11 15 16 17 18 19 20 20 21 22 23 23 24 24 25 25 26 26 27 28 28
4 5 8 6 8 11 12 11 16 17 17 20 19 19 20 22 23 24 23 23 23 23 23 24 26 26 27
7 8 8 8 8 8 12 13 16 19 19 15 14 19 23 22 23 22 21 20 22 23 24 25 27 28 29
6 7 8 8 8 9 8 11 11 7 11 24 19 22 24 24 23 22 23 23 24 25 26 27 27 27 27
8 8 10 8 8 12 11 12 16 20 19 25 22 23 25 24 24 25 25 26 26 25 24 25 25 26 27
7 10 10 10 9 10 14 16 19 19 17 19 20 23 27 26 27 27 25 23 23 23 24 25 26 27 29
10 11 11 11 11 14 14 12 14 16 18 17 12 20 27 31 21 16 18 21 24 26 26 26 27 29 29
8 7 9 10 10 12 12 12 11 10 2 6 12 14 9 16 11 21 27 23 23 25 27 26 27 27 26
8 8 8 8 8 8 9 12 14 16 18 16 12 17 13 18 17 21 26 26 26 26 27 25 22 21 25
7 8 8 9 9 9 12 15 18 24 26 21 17 18 19 24 22 25 29 31 27 25 26 24 23 22 24
7 8 9 11 12 12 12 14 17 21 23 24 25 26 24 24 26 32 28 30 34 25 21 25 26 27 28
9 11 12 11 12 12 14 14 17 20 19 19 21 22 27 28 28 31 30 21 28 32 31 31 29 28 30
10 11 12 12 13 13 14 17 18 20 24 21 19 21 26 31 31 31 29 28 29 29 29 30 27 27 28
11 12 13 14 15 15 16 18 18 20 22 23 23 23 22 24 27 34 26 26 28 27 27 25 30 27 26
13 15 14 15 15 16 16 18 19 21 22 23 22 18 10 11 21 19 28 31 30 29 25 24 27 31 27

GFSFLT2_925_spd_066.txt.gz
Wind_Speed
10 14 16 16 15 16 17 17 17 13 13 15 16 16 18 19 19 19 20 20 19 19 20 20 21 21 22
11 11 10 12 14 14 12 12 14 11 12 15 16 17 17 18 18 18 18 19 19 20 21 21 22 23 24
6 8 9 7 6 8 6 7 10 11 11 14 14 16 17 17 17 18 19 19 20 20 21 22 23 24 25
6 6 4 3 6 5 6 7 10 11 14 16 15 14 13 15 19 19 19 19 19 20 20 21 22 23 24
3 2 1 3 6 2 4 7 12 17 13 8 13 17 19 20 20 19 18 18 19 20 22 23 25 26 26
1 2 2 4 2 1 3 7 3 1 14 24 18 21 22 21 20 18 19 20 21 22 23 24 24 25 25
2 2 4 4 6 9 10 8 12 17 18 23 19 25 23 23 21 21 21 21 21 22 22 22 23 24 25
4 4 5 5 4 4 7 10 16 18 12 13 17 26 23 28 28 16 14 14 17 19 21 21 22 24 25
5 6 6 7 7 9 11 12 12 8 16 11 8 20 30 22 12 9 11 17 21 20 21 21 23 24 25
6 5 6 7 7 9 10 9 9 8 3 11 12 12 10 10 8 20 22 27 20 22 22 22 22 23 24
8 7 6 5 5 5 7 8 10 13 15 13 11 20 10 14 20 23 25 29 34 27 24 21 19 19 23
7 7 6 8 8 9 11 13 16 20 23 21 18 19 20 23 22 22 29 31 27 32 23 22 22 21 20
7 7 7 9 11 12 11 12 15 17 19 19 21 24 25 23 26 30 28 27 30 19 29 34 33 31 29
9 10 11 9 10 10 12 13 17 20 19 15 18 20 24 26 29 31 26 17 31 35 35 37 36 32 31
9 10 11 11 12 13 14 16 16 18 21 19 20 21 24 29 29 29 28 29 31 33 29 28 30 28 27
12 12 13 14 16 16 16 16 17 18 20 21 24 22 21 22 24 32 27 28 29 27 27 25 28 28 26
13 14 15 16 15 18 18 18 17 18 20 23 21 17 9 10 23 20 27 30 31 29 26 25 28 31 30

GFSFLT2_925_spd_069.txt.gz
Wind_Speed
9 14 16 15 21 15 18 17 18 18 14 12 12 13 14 15 15 15 16 16 16 16 16 16 16 17 17
7 11 9 14 13 15 15 14 13 10 10 10 12 13 13 12 13 14 14 15 15 16 16 17 17 18 19
5 7 7 9 11 10 9 9 7 6 8 9 11 11 13 12 11 12 13 14 15 15 16 18 18 19 20
5 7 5 5 5 6 7 6 5 7 11 14 13 9 8 10 12 13 13 14 14 15 15 16 17 18 20
3 2 4 4 6 4 6 5 6 11 7 4 9 12 12 10 11 12 11 12 14 15 17 18 19 21 22
1 1 2 2 3 4 2 3 3 4 9 19 13 11 11 11 11 11 13 15 15 16 17 19 20 21 22
3 2 2 1 2 4 5 6 5 11 13 13 10 14 12 13 15 15 14 13 12 12 14 16 19 20 21
3 3 4 4 5 5 5 7 11 13 7 5 9 15 20 19 7 2 4 7 11 15 17 17 18 19 22
2 4 5 5 6 8 9 9 4 3 7 4 5 19 18 6 4 1 7 15 16 16 17 19 19 20 22
4 4 4 5 5 7 7 8 6 3 1 11 4 7 9 7 6 16 22 18 19 20 20 17 17 16 20
4 4 4 3 2 3 4 6 7 8 9 8 9 13 5 10 18 21 18 27 30 24 19 14 14 14 19
4 4 4 6 6 8 10 12 13 16 16 13 14 17 15 18 15 21 27 31 25 26 18 21 22 21 20
6 6 6 9 11 10 10 11 13 14 14 14 16 18 20 19 23 25 22 24 27 15 27 29 29 27 27
7 8 9 8 9 9 12 13 17 17 14 15 13 16 24 24 26 27 23 15 25 29 31 33 31 29 29
7 8 10 11 12 12 13 14 16 18 18 18 12 16 23 27 28 26 25 24 27 31 29 30 32 30 29
11 12 13 13 15 15 14 16 16 17 18 18 21 21 23 22 23 29 22 26 32 28 26 24 28 29 27
12 13 14 14 14 17 16 16 16 17 18 20 22 18 9 10 22 19 24 27 29 27 25 25 27 33 33

GFSFLT2_925_spd_072.txt.gz
Wind_Speed
8 14 13 21 19 17 14 15 16 13 13 13 14 13 13 13 13 14 14 13 13 14 13 13 15 15 16
3 5 8 11 13 13 12 9 11 12 10 11 10 12 12 12 12 12 12 13 13 13 14 15 15 16 17
4 2 2 3 7 8 8 7 7 7 8 8 10 10 11 12 12 12 11 12 13 14 14 15 16 17 17
6 3 2 2 2 2 4 6 6 6 7 11 14 13 10 9 10 13 13 13 13 14 14 15 15 16 17
4 1 2 1 2 2 3 2 4 8 12 9 6 10 13 13 12 12 12 10 11 14 15 16 17 18 19
3 1 1 1 1 2 1 2 3 4 6 14 14 11 7 9 9 10 10 12 13 13 14 15 16 18 19
0 1 1 1 2 2 4 5 5 7 11 12 6 8 5 9 12 13 12 11 9 8 10 13 16 17 19
3 2 2 3 4 5 4 5 9 11 5 5 7 11 13 11 5 1 1 3 8 12 14 14 16 18 20
2 2 4 4 6 6 6 5 4 2 2 3 6 16 16 5 4 6 5 13 13 13 16 17 18 18 21
3 3 4 4 5 6 6 5 2 3 2 8 4 9 9 7 6 12 18 10 17 17 19 17 16 16 19
3 2 2 1 1 1 2 4 4 7 7 7 6 11 5 10 17 19 13 23 25 21 15 11 13 14 19
3 3 2 4 5 7 9 11 12 15 15 15 10 10 13 16 14 17 27 28 20 22 11 16 18 19 19
5 5 5 8 10 9 9 10 12 13 13 15 17 19 20 18 20 22 21 19 25 13 24 23 26 26 26
5 6 7 7 9 9 12 13 15 14 11 13 16 18 22 23 24 27 22 15 21 28 26 28 30 28 27
6 8 11 12 13 12 13 14 15 16 16 15 14 15 19 23 25 26 24 21 21 26 28 28 29 28 26
10 11 12 14 15 15 14 16 18 20 20 18 16 19 18 17 21 27 21 22 26 30 30 26 26 29 28
11 13 13 14 14 17 17 17 18 22 24 21 20 17 7 9 17 19 25 23 27 28 25 25 27 31 31

GFSFLT2_925_spd_075.txt.gz
Wind_Speed
4 6 7 10 12 12 14 16 16 14 14 11 13 14 12 12 12 13 12 14 14 13 13 13 13 13 14
3 2 2 6 11 9 8 10 13 12 11 12 13 11 11 12 12 11 11 12 13 12 12 13 13 13 15
2 2 2 2 4 3 4 8 6 5 5 7 9 10 9 10 12 11 11 11 11 12 13 13 13 14 15
6 3 2 2 3 2 1 2 3 4 7 8 10 12 12 10 9 10 11 12 12 13 12 12 13 14 15
4 2 2 2 2 1 1 0 3 6 9 11 10 9 11 12 12 13 12 12 10 10 11 13 14 15 16
4 3 3 3 2 1 1 1 3 3 7 11 13 13 8 7 9 11 10 10 10 11 11 12 13 14 16
2 3 3 2 1 2 3 3 4 7 10 10 6 6 4 6 11 14 13 10 8 7 8 11 13 15 18
3 3 3 4 5 5 6 7 9 11 6 4 5 8 8 11 7 1 4 5 6 9 11 13 14 16 18
3 2 2 3 6 6 6 6 4 3 3 4 4 12 13 7 7 9 5 5 14 12 12 14 17 18 19
4 4 4 4 6 6 8 7 4 4 2 4 6 9 8 5 3 8 11 14 9 16 16 17 16 16 17
4 3 2 1 1 2 3 4 6 8 9 8 6 9 7 8 17 17 12 14 23 20 14 14 12 13 17
3 2 1 2 4 6 7 9 11 14 15 16 11 11 14 15 13 13 24 25 16 18 10 8 15 16 18
3 3 4 7 9 7 7 8 10 12 13 14 17 19 20 18 20 22 19 15 26 12 11 23 21 21 25
5 7 7 7 9 10 12 12 14 13 10 11 14 17 23 25 23 26 21 14 20 25 23 24 25 26 25
8 9 10 12 12 10 11 13 14 16 18 15 12 16 20 23 24 25 25 23 24 23 24 28 30 28 26
11 12 13 14 14 13 12 14 15 17 19 18 16 16 19 20 20 29 23 22 25 26 26 23 29 27 25
14 14 15 15 13 16 16 16 19 20 21 19 17 15 7 7 15 16 25 27 25 26 28 24 26 33 30

GFSFLT2_925_spd_078.txt.gz
Wind_Speed
3 6 5 2 2 3 6 8 6 8 11 13 14 9 10 12 12 8 8 10 12 12 12 12 12 12 12
3 6 4 3 1 3 5 7 10 11 12 12 12 13 14 11 7 7 8 10 11 11 11 10 11 11 12
3 4 4 5 3 1 2 5 5 4 5 4 4 5 6 6 7 8 10 10 9 6 9 11 10 10 12
5 4 6 6 4 3 2 2 2 1 2 4 6 9 11 10 8 9 10 9 9 9 11 11 8 9 11
7 4 4 4 4 3 1 2 1 2 5 7 10 12 11 11 12 11 10 10 9 9 9 9 10 11 12
6 4 4 4 3 2 3 2 2 2 8 10 10 10 10 9 9 9 9 9 8 9 9 9 10 10 11
5 4 3 3 2 3 3 4 4 8 10 8 6 7 5 5 7 9 11 10 9 7 7 7 10 12 12
6 5 5 5 4 3 3 5 8 6 4 3 6 9 8 9 10 5 1 5 6 7 9 10 11 13 14
3 2 2 3 4 3 5 8 3 3 5 5 7 15 12 8 4 5 2 4 5 8 9 12 13 15 17
2 2 2 1 2 4 5 5 4 3 6 8 8 9 7 2 1 4 10 12 11 11 16 16 15 16 18
2 2 1 1 2 2 3 3 3 5 7 6 7 10 6 8 13 14 12 10 16 18 12 12 13 10 14
3 2 1 1 3 4 6 7 8 11 11 11 9 12 15 14 11 11 21 24 14 17 15 8 8 13 15
4 4 4 6 7 7 8 8 10 11 12 12 15 17 18 18 19 21 16 13 24 7 9 18 17 14 19
5 7 7 7 9 10 12 12 14 13 10 10 12 14 18 21 24 27 21 13 17 22 22 22 21 20 22
7 8 9 12 13 12 13 13 15 17 19 14 11 14 18 21 25 25 27 25 25 22 20 24 28 26 27
10 11 13 13 15 14 13 14 17 19 20 19 17 17 16 17 17 26 24 24 21 19 21 22 27 31 25
12 13 14 16 15 16 16 17 19 20 21 19 17 14 4 5 14 16 24 24 23 25 27 27 27 34 29

GFSFLT2_925_spd_081.txt.gz
Wind_Speed
1 5 4 3 2 1 2 3 3 2 3 5 9 14 16 12 8 6 8 11 10 9 9 9 9 9 8
1 4 4 3 1 2 2 3 5 8 10 11 12 12 11 11 11 10 7 7 7 7 8 9 9 8 8
2 2 4 4 3 2 3 3 2 2 3 3 3 2 2 3 4 4 6 8 8 7 6 6 8 7 7
3 3 3 3 3 3 4 5 4 2 1 1 3 5 6 8 8 9 12 11 8 8 9 9 9 8 8
3 2 2 3 3 3 3 3 3 3 4 5 6 9 10 12 13 14 13 11 10 10 9 8 8 8 8
2 2 2 2 2 2 3 3 2 3 8 7 9 7 8 8 8 8 8 9 9 9 9 9 9 8 8
3 2 2 2 1 2 3 3 3 6 8 4 6 5 4 3 5 6 8 9 9 9 9 8 8 8 9
5 4 4 3 2 2 2 4 4 3 4 2 6 5 7 7 8 6 2 4 4 5 9 9 9 10 12
2 1 0 2 2 1 2 3 1 1 4 2 4 8 6 3 3 6 6 3 4 6 6 8 11 13 14
1 1 1 1 1 2 2 1 1 1 2 5 4 6 4 2 1 4 7 10 11 12 13 17 18 14 14
2 1 1 0 0 2 4 3 2 3 2 6 4 7 4 6 9 9 12 8 12 16 18 15 15 12 12
0 1 1 2 3 4 5 7 6 8 9 8 6 6 9 13 10 7 13 17 16 12 17 15 11 12 13
3 3 3 4 6 5 7 8 10 11 11 12 13 12 12 13 16 17 15 9 21 15 7 12 15 15 16
5 5 5 4 6 7 8 9 10 9 8 9 11 13 15 16 18 21 17 12 11 17 19 19 16 13 16
8 8 6 7 8 8 9 9 10 11 11 13 11 14 17 21 21 22 20 18 17 16 15 19 18 18 17
11 10 9 9 9 9 10 9 12 13 13 12 15 14 11 15 16 22 16 16 15 14 12 15 22 20 18
13 13 12 11 11 11 12 12 14 14 13 13 13 8 8 8 11 15 18 16 17 18 17 18 22 28 19

GFSFLT2_925_spd_084.txt.gz
Wind_Speed
1 4 4 5 4 2 2 2 1 1 3 3 4 4 4 4 5 4 3 5 7 9 8 7 7 7 7
0 3 4 4 3 3 3 3 5 6 8 8 7 6 6 6 7 7 7 6 5 4 3 4 6 7 7
3 2 2 2 3 4 4 4 3 4 4 4 3 3 3 2 0 1 2 3 4 4 4 4 5 6 7
3 2 0 1 2 3 2 4 3 4 5 5 4 4 4 5 6 7 8 7 4 5 7 7 8 9 8
3 1 1 1 1 2 2 3 2 4 4 4 4 5 5 7 9 11 11 10 9 8 7 7 8 8 8
2 1 1 0 1 2 3 4 2 4 6 6 6 4 4 3 7 8 7 6 6 6 7 8 9 9 9
2 1 1 1 0 1 2 3 4 5 6 4 4 4 3 3 5 5 5 6 7 6 8 9 10 9 9
4 2 2 1 0 0 2 3 3 2 4 3 4 4 5 5 8 6 4 3 5 6 7 8 10 10 12
3 2 1 0 3 1 1 3 2 1 3 3 4 7 6 4 3 3 7 7 6 6 8 8 9 11 14
1 1 2 1 3 1 2 2 2 2 1 4 4 5 4 2 2 3 6 9 10 11 12 13 15 14 14
2 2 2 2 2 1 0 1 3 4 2 4 3 5 3 6 8 8 9 10 9 11 13 16 18 17 14
3 3 4 4 4 3 4 5 5 7 8 6 4 5 7 10 8 5 9 12 15 16 13 14 17 15 16
5 5 4 5 7 6 6 7 8 10 10 10 11 11 10 11 12 13 13 8 18 17 15 11 10 13 14
6 5 5 5 5 6 7 7 9 8 8 9 11 11 13 15 16 18 16 10 8 14 15 17 16 16 17
8 7 7 7 8 8 8 8 10 9 8 7 8 11 15 17 18 19 18 16 16 15 13 17 17 15 16
9 9 9 9 9 9 10 10 11 10 10 9 8 9 10 14 19 20 15 14 13 12 13 17 21 17 18
11 11 11 10 10 11 11 11 12 12 12 10 9 9 9 8 12 15 16 13 12 15 16 18 22 24 19

GFSFLT2_925_spd_087.txt.gz
Wind_Speed
2 2 3 4 5 4 2 2 3 4 4 5 3 3 2 2 2 0 2 3 3 3 4 6 5 4 4
2 1 3 4 4 2 3 3 4 4 5 4 4 3 2 2 2 2 2 2 3 3 2 3 2 1 1
3 1 2 3 3 5 5 6 6 6 5 5 3 2 5 6 5 3 2 2 2 3 3 3 2 2 2
3 3 2 1 2 3 1 3 2 3 5 6 5 5 3 2 3 4 4 4 3 2 3 4 6 6 4
5 3 2 2 2 3 2 3 3 4 4 4 5 3 4 5 3 6 7 8 7 6 5 4 3 2 3
3 2 3 1 1 1 2 4 2 5 5 5 7 3 4 4 6 5 4 3 3 3 3 3 4 5 5
3 3 3 1 2 1 1 1 3 6 7 4 5 4 6 6 6 5 4 3 4 3 3 4 5 7 6
4 4 3 1 1 0 1 2 3 2 4 2 5 4 6 4 9 6 5 3 3 5 5 4 5 6 7
2 2 2 2 4 0 1 3 2 2 3 2 5 9 7 5 5 2 2 4 6 6 4 5 6 8 11
1 1 2 1 3 1 2 1 2 3 2 4 6 7 6 4 5 4 4 6 8 8 9 9 11 13 14
3 2 2 2 0 2 2 1 2 4 3 3 3 4 4 7 9 6 7 10 10 10 10 12 13 14 17
4 4 4 5 5 6 5 6 5 8 10 10 5 5 6 9 8 6 9 10 14 16 13 12 13 15 16
6 6 7 8 9 8 6 6 8 9 10 12 12 12 12 12 12 14 15 6 16 17 11 11 12 10 15
7 7 8 8 5 6 7 7 10 11 10 10 11 13 15 17 17 20 17 11 6 13 19 17 16 18 19
9 9 9 9 8 8 8 9 11 11 10 10 11 12 16 18 20 21 21 20 18 18 15 17 17 17 17
12 12 11 11 11 10 10 11 13 13 12 12 12 14 15 18 22 25 19 18 16 15 15 18 24 22 20
16 14 14 14 12 12 12 13 14 13 14 13 13 13 8 7 15 17 19 15 14 16 17 20 24 27 22

GFSFLT2_925_spd_090.txt.gz
Wind_Speed
4 2 1 2 2 2 1 1 1 2 1 2 3 3 4 3 2 2 2 3 4 4 2 2 3 3 4
4 3 2 2 3 3 3 2 3 4 6 5 4 4 1 1 1 1 2 2 2 2 4 3 1 2 2
5 4 2 3 4 5 5 6 6 6 6 6 5 4 7 6 5 4 3 3 2 3 4 5 5 5 3
7 4 3 3 3 4 5 3 1 2 4 6 5 5 2 1 2 2 3 3 3 2 2 3 5 5 5
6 5 4 4 4 2 3 2 2 4 2 2 4 1 0 3 3 4 5 7 7 7 6 4 3 2 2
5 4 5 4 3 1 2 1 1 3 7 2 4 2 2 5 4 3 3 3 3 3 3 3 3 4 3
7 6 6 3 2 3 2 2 1 5 6 4 4 3 3 4 5 5 3 2 3 4 4 6 5 5 6
6 5 4 4 2 3 2 1 0 1 5 1 4 3 4 3 4 6 1 2 4 6 6 5 7 5 6
4 4 4 4 3 4 3 2 2 2 3 2 3 8 5 4 4 1 1 2 4 6 6 4 5 6 9
5 4 4 4 5 3 2 4 1 1 1 3 3 6 4 1 3 3 5 4 5 5 7 7 7 11 14
5 4 3 2 3 2 1 3 5 2 1 4 2 4 3 6 9 6 6 7 8 8 11 11 10 11 14
6 6 5 6 6 6 5 4 5 6 8 7 5 3 4 7 7 6 11 12 14 14 10 11 11 11 14
8 7 9 10 10 9 6 6 6 6 7 9 11 10 11 11 12 16 16 6 17 12 8 7 12 14 15
8 7 9 10 10 7 5 6 8 9 7 8 10 11 15 17 18 20 16 11 9 16 17 17 16 15 16
12 11 12 11 9 7 9 9 10 11 11 10 10 12 14 16 20 21 20 22 21 17 15 19 20 18 17
14 15 15 15 14 13 13 13 14 14 13 12 11 12 15 18 21 26 20 19 14 12 13 17 24 24 20
17 18 17 17 16 17 17 17 18 16 15 12 13 13 8 7 12 13 22 20 17 18 18 19 24 31 27

GFSFLT2_925_spd_093.txt.gz
Wind_Speed
7 6 3 2 2 3 2 2 1 1 1 1 1 3 2 4 6 6 6 6 6 5 4 3 3 3 4
8 6 3 4 4 4 3 2 2 4 3 2 2 1 2 0 2 3 4 4 4 4 5 4 3 2 3
7 6 4 7 8 6 6 5 6 4 3 4 3 5 8 7 5 5 5 3 3 4 5 6 6 6 5
9 8 7 8 7 9 9 6 3 2 1 3 2 3 2 2 2 2 3 3 3 2 3 4 5 6 7
11 9 9 10 8 7 7 6 3 1 2 3 1 1 1 2 2 3 4 5 6 6 5 5 4 3 3
9 11 9 9 9 7 7 6 3 2 1 3 2 2 1 2 2 2 2 3 4 3 3 3 2 3 3
12 11 11 10 9 9 7 5 3 0 1 5 2 4 2 1 2 3 2 2 3 3 3 5 4 3 4
8 8 8 9 7 7 7 6 5 2 0 3 1 2 2 1 1 4 2 1 2 4 4 5 6 7 5
7 7 7 7 7 8 9 9 3 4 0 0 2 3 2 3 1 2 1 1 2 3 5 5 4 5 7
8 8 8 7 7 6 6 9 4 3 2 1 1 3 2 3 2 2 3 3 2 2 4 4 5 8 11
9 9 8 7 7 5 4 5 7 3 3 2 1 1 1 3 5 2 4 4 6 7 7 8 10 10 13
10 9 9 8 7 5 4 4 4 5 7 5 3 3 2 3 4 4 8 10 11 7 6 8 10 8 10
12 12 11 7 8 8 6 6 6 7 6 7 8 9 9 7 6 11 11 6 14 5 2 5 10 13 14
13 11 11 12 12 11 10 7 6 7 6 6 7 9 11 13 14 19 16 10 5 8 15 14 12 12 12
14 14 14 13 12 11 10 8 10 7 7 7 8 10 12 13 16 17 16 16 16 16 12 15 16 15 16
18 17 17 17 15 13 13 15 15 13 12 9 8 10 13 14 17 21 17 16 10 7 8 14 22 19 18
20 20 19 19 17 17 18 18 20 19 16 11 11 11 8 4 8 11 15 14 13 14 14 17 24 29 24

GFSFLT2_925_spd_096.txt.gz
Wind_Speed
7 9 7 5 4 4 5 5 3 1 1 2 3 5 6 4 4 6 6 8 8 6 4 3 3 3 2
9 8 6 7 8 6 5 4 4 2 2 1 1 3 3 3 4 4 2 3 4 4 5 6 6 5 5
8 10 6 9 10 9 7 7 6 4 3 4 4 8 8 6 5 4 4 4 5 6 7 8 7 6 4
8 8 7 12 11 11 10 7 6 3 3 3 3 4 3 2 2 2 3 4 4 3 4 4 4 6 7
11 8 9 12 13 13 10 9 5 3 4 4 2 3 3 2 2 3 5 5 5 5 4 3 3 3 3
11 15 13 14 14 14 12 7 3 4 4 5 3 4 2 0 0 1 1 4 4 4 3 2 2 2 3
13 15 13 14 14 13 12 8 5 5 4 6 4 5 3 2 0 2 2 2 3 3 3 4 4 3 3
10 11 9 12 11 10 9 9 8 5 5 4 5 5 4 3 2 2 2 3 3 4 4 5 6 6 7
8 9 9 8 8 10 12 13 4 5 4 4 5 4 4 5 5 4 3 3 3 3 5 5 5 4 7
10 10 10 8 8 7 8 14 5 4 6 4 4 2 3 6 6 7 6 6 4 3 3 3 4 6 9
10 9 10 8 8 7 8 8 8 4 7 4 6 3 2 3 7 7 7 7 7 8 8 9 8 7 10
11 11 10 9 8 7 5 5 6 6 6 7 3 6 4 2 3 7 7 8 10 10 10 9 8 8 7
13 12 11 8 9 8 5 5 6 7 9 10 10 10 9 6 3 5 7 5 9 12 6 3 7 10 12
14 11 11 13 13 11 9 8 8 7 7 7 7 8 8 11 12 16 13 9 4 7 10 16 12 10 12
15 15 16 15 15 13 12 11 11 5 7 8 8 10 11 12 15 17 15 14 14 11 13 16 12 10 10
18 18 19 19 18 16 15 16 17 15 12 9 9 9 10 14 19 22 18 15 13 7 8 14 19 13 14
23 23 22 20 19 20 20 20 21 21 18 13 11 12 6 4 4 10 14 12 11 11 11 14 22 24 22

GFSFLT2_925_spd_099.txt.gz
Wind_Speed
7 11 11 8 6 5 5 5 3 2 1 2 3 4 5 6 7 10 11 12 12 11 9 6 4 3 3
9 12 9 10 7 7 7 6 6 2 2 4 1 3 4 5 3 5 6 6 6 7 9 9 8 8 7
8 12 7 12 11 9 8 8 8 5 3 2 3 7 5 3 4 7 7 5 6 8 10 10 8 8 7
8 9 8 10 12 12 11 9 7 5 4 4 3 5 5 3 3 4 4 6 5 5 5 5 5 5 5
8 7 9 10 15 12 11 9 6 6 6 4 3 4 2 1 1 2 3 3 4 4 3 3 3 3 4
12 8 12 14 16 15 12 8 4 7 7 6 4 4 3 1 1 1 2 4 4 4 4 3 2 3 4
14 13 13 15 16 16 15 11 5 6 7 7 5 5 3 3 2 1 2 3 4 4 4 4 5 4 4
11 9 9 11 13 14 13 11 8 6 7 4 6 6 5 3 2 3 1 4 4 5 5 5 6 6 6
6 7 8 10 11 12 14 15 4 7 7 5 6 6 6 5 5 4 4 5 4 5 5 5 5 6 7
8 9 8 8 8 9 12 16 5 4 8 6 7 6 3 6 8 8 7 7 6 5 5 4 5 7 8
7 8 9 8 8 8 9 10 9 3 7 8 8 6 3 3 8 9 9 9 9 9 9 8 8 7 9
10 9 10 9 8 7 6 6 7 6 7 9 4 7 5 4 4 8 10 9 10 11 11 11 11 9 8
13 12 11 8 10 9 7 6 5 5 6 8 8 6 8 7 2 5 4 9 12 12 10 10 10 8 11
13 11 11 12 12 12 9 7 6 7 6 6 6 5 7 9 11 15 12 8 4 6 10 14 14 15 13
14 14 14 14 15 14 12 11 10 5 6 7 7 7 9 11 13 16 15 16 15 16 17 19 16 12 13
17 17 18 17 17 17 16 16 16 15 12 9 9 8 8 11 19 22 18 16 13 12 12 13 16 10 10
22 21 21 21 19 20 20 19 20 19 19 14 13 13 6 3 4 12 15 11 9 10 11 15 19 19 18

GFSFLT2_925_spd_102.txt.gz
Wind_Speed
7 11 13 11 9 7 5 4 4 3 1 2 4 4 4 5 9 14 17 19 20 19 17 15 12 9 6
7 10 11 12 8 7 7 7 6 3 2 2 1 4 6 3 3 5 9 10 11 14 14 12 12 10 9
8 12 10 13 12 10 8 8 7 6 4 3 3 5 3 2 7 8 8 9 9 11 15 16 15 14 11
10 8 9 10 13 11 10 10 8 7 5 5 4 6 3 4 5 6 8 10 10 10 9 9 9 9 8
8 7 8 8 14 12 12 11 9 8 8 5 5 5 3 2 2 3 5 6 6 7 6 6 6 6 7
11 7 10 10 13 15 14 8 5 9 9 7 6 5 4 3 2 2 4 5 6 6 5 5 5 6 7
11 12 11 14 15 17 16 12 7 5 9 7 6 6 5 5 3 2 3 4 5 5 5 6 7 7 7
8 8 8 8 13 16 15 12 7 7 8 4 8 7 6 6 3 3 4 5 6 6 6 7 8 7 7
5 5 6 7 12 13 15 14 4 6 8 5 7 7 8 7 7 5 6 6 7 8 6 6 7 8 8
5 7 7 8 10 10 11 17 6 4 10 8 8 7 4 8 10 9 7 7 6 6 6 6 7 8 8
4 6 7 7 7 7 9 11 9 2 6 10 8 8 3 3 9 11 11 10 9 9 8 7 7 7 7
7 7 8 6 7 7 7 7 8 7 5 11 3 9 7 5 4 10 13 12 11 11 11 11 11 11 9
10 9 8 7 8 8 7 6 5 5 6 8 8 8 9 6 3 6 6 12 13 13 13 13 13 15 14
10 10 9 10 11 11 10 8 7 7 7 8 8 9 10 11 12 12 11 5 6 8 9 13 14 14 13
12 11 13 14 14 14 13 11 10 4 6 9 8 8 8 10 10 15 14 15 14 14 16 18 18 18 18
15 15 16 17 16 16 17 17 15 14 13 9 9 8 7 10 18 21 18 17 14 13 14 14 17 12 13
20 20 19 19 18 19 20 19 20 19 16 14 14 14 6 2 3 13 17 11 9 12 13 14 13 11 13

GFSFLT2_925_spd_105.txt.gz
Wind_Speed
8 10 11 13 12 10 8 6 5 3 1 1 2 4 3 5 8 16 21 27 26 29 27 23 21 17 13
7 9 11 13 11 9 9 9 7 4 3 2 1 3 7 4 4 6 11 13 16 18 20 18 16 13 11
8 10 10 14 13 11 10 9 8 6 6 6 2 2 4 3 2 5 9 11 13 17 18 17 15 15 14
9 8 10 10 14 12 10 11 9 7 6 6 6 5 2 4 6 9 8 9 9 10 11 13 15 15 15
8 6 8 7 15 13 11 10 10 9 8 7 6 5 2 3 3 5 6 7 8 9 10 10 11 11 11
11 8 11 11 12 14 13 8 4 11 10 8 7 6 4 3 3 4 6 7 7 7 7 7 8 9 11
10 12 11 12 12 14 14 11 5 6 11 6 7 6 6 5 3 3 5 6 6 7 7 7 8 9 9
9 9 10 9 13 14 16 12 8 7 10 4 8 7 7 7 4 3 6 6 7 7 8 10 9 9 9
5 7 7 7 10 13 15 14 5 7 11 5 7 7 8 8 7 6 5 7 8 8 8 9 10 10 9
1 3 5 7 9 11 12 16 5 4 11 9 9 8 4 9 11 10 10 7 8 8 8 9 10 11 11
3 4 6 6 6 7 9 12 10 3 7 13 9 10 4 3 11 14 13 11 11 11 10 10 10 10 11
5 5 5 5 5 6 8 8 9 7 6 14 5 10 8 5 4 10 14 14 14 14 13 12 12 10 10
7 7 6 6 6 7 6 6 6 6 8 10 9 8 9 7 4 7 7 14 16 15 15 15 15 16 15
8 7 7 8 9 8 8 8 6 6 7 8 9 9 10 11 11 10 11 6 10 14 15 16 16 16 16
9 9 10 11 12 11 10 9 7 5 8 10 9 9 10 10 10 14 14 15 16 13 12 14 15 17 18
12 12 12 14 13 13 14 14 13 12 11 9 10 8 7 11 18 17 14 14 14 14 15 13 17 15 19
16 17 17 16 14 16 17 17 16 16 16 14 14 11 6 3 4 12 16 12 11 15 14 13 10 7 8

GFSFLT2_925_spd_108.txt.gz
Wind_Speed
9 10 10 10 9 9 8 7 6 3 3 3 5 9 7 8 10 17 14 7 12 20 24 26 30 28 23
8 8 8 9 9 9 8 9 6 3 1 1 4 8 9 8 9 10 15 23 29 30 28 25 23 20 17
5 8 8 9 11 9 9 9 9 7 6 3 1 6 10 7 4 5 9 12 16 20 20 18 18 17 14
6 7 7 7 12 11 9 11 10 8 7 5 5 7 4 3 4 5 5 9 12 12 13 17 18 18 15
8 7 7 7 13 12 12 10 10 9 6 5 3 3 1 0 1 2 4 6 8 10 11 12 14 14 15
10 8 11 10 10 13 13 7 5 11 8 6 6 3 3 1 2 3 4 5 6 7 8 9 10 10 11
9 10 9 12 12 13 15 12 7 6 9 8 6 5 6 3 3 3 4 5 6 6 7 7 9 11 11
9 9 9 8 11 11 13 13 9 7 9 4 6 5 5 5 3 3 5 5 6 6 6 8 10 9 9
5 7 8 7 8 8 11 12 5 5 11 4 6 6 6 5 6 5 6 6 7 7 8 10 9 10 8
1 1 2 5 8 7 8 13 5 4 9 9 8 7 3 8 9 9 9 7 11 9 8 9 10 7 7
2 2 3 3 4 6 7 10 10 4 6 12 8 9 3 3 9 13 12 9 9 11 11 10 10 10 8
3 3 3 3 4 6 7 9 10 7 6 15 3 9 7 4 4 11 15 14 13 13 13 12 11 10 12
5 5 5 6 6 6 6 7 7 8 9 11 10 8 9 4 3 5 7 13 16 16 15 15 15 13 11
5 5 7 7 8 8 7 7 6 6 8 9 9 9 9 9 8 5 9 5 10 16 15 15 15 15 16
6 7 7 8 9 10 9 9 6 5 8 10 10 10 11 11 8 12 10 11 13 10 12 12 14 16 16
8 8 9 10 10 11 11 10 9 9 8 8 8 5 6 10 17 12 11 12 12 13 13 11 13 14 17
13 13 13 13 12 11 11 12 12 10 10 11 11 8 7 4 4 11 17 11 11 12 13 14 10 8 10

GFSFLT2_925_spd_111.txt.gz
Wind_Speed
11 10 9 10 10 8 7 6 6 5 4 5 7 9 13 13 14 18 21 4 8 12 16 20 26 30 31
5 8 8 7 9 8 7 7 7 5 2 3 6 9 13 14 11 12 19 24 10 14 20 25 29 29 26
7 8 8 9 8 9 9 9 8 7 6 4 5 8 12 10 8 6 11 18 25 29 28 27 25 25 21
11 7 8 8 9 11 10 11 11 9 8 7 7 7 8 6 6 5 7 10 14 17 18 22 20 20 21
9 7 7 8 9 9 12 11 11 11 9 6 3 5 4 4 3 4 5 6 8 12 15 16 17 19 18
9 8 12 13 11 11 11 8 4 11 11 7 7 5 4 3 2 0 2 4 6 8 9 10 11 12 14
9 9 10 11 12 12 13 10 5 3 11 6 6 6 6 5 4 2 2 4 4 5 7 8 10 11 11
10 12 11 11 9 10 11 11 7 6 10 3 6 5 6 4 2 2 2 3 4 5 6 8 9 10 8
7 9 10 9 8 8 9 11 4 6 10 6 5 6 3 3 3 2 5 5 5 7 8 8 9 9 9
4 3 3 6 9 8 7 14 4 4 9 10 9 7 2 7 7 6 7 7 8 6 8 9 9 10 8
4 3 3 2 4 8 9 12 13 4 5 14 9 10 4 3 9 11 11 9 11 10 9 9 10 11 11
5 5 4 5 5 7 8 10 11 9 6 12 4 10 8 4 3 10 14 12 12 12 12 12 11 13 13
6 6 7 8 6 5 6 7 7 8 8 9 9 7 9 6 4 6 9 14 16 15 14 15 14 14 13
6 6 8 7 6 6 6 6 5 5 7 8 9 9 9 10 9 8 11 5 11 17 17 16 17 17 18
8 9 7 7 8 8 8 7 5 4 6 8 8 9 10 11 11 15 14 14 14 10 15 18 19 19 20
10 10 10 10 10 10 10 10 9 9 8 8 8 6 6 10 17 17 14 17 15 15 15 14 16 16 17
13 13 12 12 11 12 12 12 13 13 12 13 12 10 4 3 4 10 19 16 15 15 17 19 16 12 13

GFSFLT2_925_spd_114.txt.gz
Wind_Speed
11 10 9 11 11 9 7 7 7 8 7 7 7 9 13 19 17 15 21 14 9 10 12 17 23 26 31
5 6 9 10 9 9 8 7 7 6 5 4 6 9 12 17 11 11 17 22 7 5 9 14 19 19 32
7 12 10 10 10 10 9 8 9 7 6 5 7 9 11 13 10 8 12 19 22 21 28 30 33 23 22
10 7 7 11 11 12 11 11 10 9 9 9 8 8 8 8 8 6 7 12 17 24 25 27 27 27 27
6 7 9 10 10 8 10 11 10 10 10 10 6 6 7 7 5 5 3 6 11 14 16 18 21 24 25
9 9 12 12 10 11 10 5 3 6 11 9 7 8 7 6 4 2 2 2 6 9 12 12 15 15 14
10 9 8 8 8 10 10 8 5 6 8 5 7 8 9 7 5 2 2 3 4 6 8 10 12 14 15
9 10 9 9 9 9 7 8 8 7 9 4 7 8 7 6 4 2 2 4 6 6 7 9 9 10 11
5 8 7 8 8 10 6 8 6 7 11 6 5 6 6 5 4 2 4 5 5 7 9 10 10 10 10
5 5 3 3 6 7 5 12 5 4 8 9 7 6 3 6 6 4 5 6 5 7 9 10 11 11 12
4 4 3 2 5 9 7 10 13 11 5 11 9 10 4 2 8 8 8 7 9 8 9 9 11 11 11
5 7 7 6 6 6 9 11 12 14 10 11 5 10 7 4 2 10 13 12 11 12 10 10 11 12 12
9 9 10 10 8 7 7 8 8 9 10 10 10 8 9 4 3 6 9 15 16 14 13 14 13 13 14
9 9 10 10 9 8 7 7 6 7 9 9 9 9 10 11 9 6 8 4 8 18 17 15 15 15 16
9 12 11 10 10 9 8 8 7 5 7 8 8 9 11 11 12 15 14 14 13 8 14 17 18 18 18
13 15 14 12 10 11 10 11 11 10 8 8 8 7 8 12 18 19 15 17 16 14 14 15 18 16 18
16 16 15 13 12 13 12 12 13 12 11 11 10 9 3 2 5 7 18 17 15 16 17 19 20 15 13

GFSFLT2_925_spd_117.txt.gz
Wind_Speed
5 6 6 8 10 11 9 10 10 9 9 8 9 10 14 18 21 18 18 24 23 20 11 10 13 21 23
5 5 5 7 12 11 11 10 11 8 6 6 9 11 13 14 18 16 15 22 19 16 6 6 11 17 22
4 5 6 10 10 11 12 12 11 9 7 6 9 10 13 13 14 13 14 19 23 10 4 7 14 14 15
5 5 6 9 10 12 14 13 12 11 11 10 10 11 10 11 12 12 9 13 18 21 24 24 22 18 18
4 3 5 9 10 9 10 10 12 12 11 11 10 10 9 8 9 8 8 8 11 16 20 19 23 22 18
6 7 11 11 11 11 11 5 3 4 6 11 8 9 8 8 8 6 5 4 4 9 12 13 19 22 26
10 10 10 10 10 9 10 8 6 5 4 7 7 8 8 8 8 4 3 2 2 2 5 8 11 12 10
8 11 12 11 10 8 7 8 9 8 6 4 5 7 7 7 5 3 1 3 3 2 3 4 7 12 16
5 7 9 10 10 10 8 6 4 5 8 5 4 5 7 7 4 2 1 2 3 4 4 5 7 9 12
6 5 5 5 7 7 6 7 5 3 5 6 3 3 3 3 4 3 3 4 3 6 5 6 8 10 12
6 5 5 3 5 7 6 7 9 7 3 5 2 4 4 3 3 6 6 6 7 7 8 6 8 9 10
8 7 7 5 4 5 6 8 11 12 9 8 4 5 4 2 3 6 10 10 9 9 7 8 8 8 11
9 7 7 7 6 6 6 6 7 7 11 12 10 9 9 5 2 2 5 13 14 12 10 12 11 12 12
7 7 8 7 7 7 6 5 4 6 7 8 8 9 9 10 10 9 7 3 5 14 14 14 14 15 15
9 9 8 7 8 8 6 6 7 3 4 7 8 9 11 12 11 15 15 14 11 8 10 15 17 18 18
11 11 11 10 9 9 9 8 10 9 8 5 6 7 8 10 16 20 15 14 13 12 12 13 17 14 17
12 11 11 11 10 12 11 10 12 11 10 8 8 8 2 2 5 6 11 12 12 13 15 16 18 14 9